• In Latvia
  • List of Countries
  • For 7 days
  • Water Temperature
  • Satellite Maps
  • Weather Map
  • Weather Widgets
  • user-avatar
    Login

    Hourly Weather Mendoza

    Today, 25 February, Saturday

    Time Temperature Precipitation Wind Pressure Humidity
    00:00 +29°C° 0.5 mm 3 mps 697 mmHg 49%
    01:00 +28°C° 0 mm 3 mps 698 mmHg 53%
    02:00 +28°C° 0.3 mm 3 mps 698 mmHg 55%
    03:00 +28°C° 0.3 mm 3 mps 698 mmHg 56%
    04:00 +27°C° 0.3 mm 3 mps 698 mmHg 57%
    05:00 +28°C° 0.4 mm 3 mps 698 mmHg 56%
    06:00 +28°C° 0.4 mm 3 mps 698 mmHg 54%
    07:00 +27°C° 0 mm 3 mps 699 mmHg 59%
    08:00 +29°C° 0.4 mm 3 mps 699 mmHg 55%
    09:00 +30°C° 0.4 mm 3 mps 699 mmHg 52%
    10:00 +31°C° 0.4 mm 3 mps 698 mmHg 48%
    11:00 +33°C° 1.6 mm 3 mps 698 mmHg 46%
    12:00 +34°C° 1.6 mm 3 mps 698 mmHg 45%
    13:00 +34°C° 1.6 mm 2 mps 697 mmHg 43%
    14:00 +34°C° 2.2 mm 2 mps 697 mmHg 45%
    15:00 +34°C° 2.2 mm 3 mps 697 mmHg 46%
    16:00 +33°C° 2.2 mm 3 mps 696 mmHg 48%
    17:00 +32°C° 2.4 mm 4 mps 696 mmHg 54%
    18:00 +29°C° 2.4 mm 5 mps 696 mmHg 60%
    19:00 +27°C° 2.4 mm 6 mps 696 mmHg 67%
    20:00 +27°C° 2.6 mm 5 mps 697 mmHg 69%
    21:00 +27°C° 2.6 mm 4 mps 697 mmHg 72%
    22:00 +26°C° 2.6 mm 4 mps 697 mmHg 74%
    23:00 +26°C° 0.3 mm 3 mps 697 mmHg 75%

    Tomorrow, 26 February, Sunday

    Time Temperature Precipitation Wind Pressure Humidity
    00:00 +26°C° 0.3 mm 3 mps 696 mmHg 75%
    01:00 +26°C° 0.3 mm 2 mps 696 mmHg 76%
    02:00 +25°C° 0 mm 2 mps 696 mmHg 76%
    03:00 +25°C° 0 mm 1 mps 696 mmHg 76%
    04:00 +25°C° 0 mm 1 mps 695 mmHg 76%
    05:00 +25°C° 0 mm 1 mps 696 mmHg 73%
    06:00 +26°C° 0 mm 1 mps 696 mmHg 71%
    07:00 +26°C° 0 mm 1 mps 696 mmHg 68%
    08:00 +28°C° 0.1 mm 2 mps 696 mmHg 62%
    09:00 +29°C° 0.1 mm 2 mps 696 mmHg 57%
    10:00 +31°C° 0.1 mm 3 mps 696 mmHg 51%
    11:00 +33°C° 0.1 mm 3 mps 696 mmHg 48%
    12:00 +34°C° 0.1 mm 3 mps 696 mmHg 45%
    13:00 +35°C° 0.1 mm 4 mps 696 mmHg 41%
    14:00 +35°C° 0.9 mm 3 mps 695 mmHg 41%
    15:00 +35°C° 0.9 mm 3 mps 695 mmHg 40%
    16:00 +36°C° 0.9 mm 2 mps 695 mmHg 40%
    17:00 +34°C° 1.6 mm 2 mps 695 mmHg 45%
    18:00 +32°C° 1.6 mm 2 mps 695 mmHg 51%
    19:00 +30°C° 1.6 mm 1 mps 696 mmHg 57%
    20:00 +30°C° 1.3 mm 2 mps 696 mmHg 58%
    21:00 +29°C° 1.3 mm 2 mps 696 mmHg 59%
    22:00 +28°C° 1.3 mm 3 mps 697 mmHg 59%
    23:00 +28°C° 0.6 mm 3 mps 696 mmHg 61%

    Day after tomorrow, 27 February, Monday

    Time Temperature Precipitation Wind Pressure Humidity
    00:00 +27°C° 0.6 mm 3 mps 696 mmHg 62%
    01:00 +26°C° 0.6 mm 2 mps 696 mmHg 64%
    02:00 +26°C° 0 mm 2 mps 696 mmHg 64%
    03:00 +26°C° 0 mm 2 mps 696 mmHg 64%
    04:00 +26°C° 0 mm 2 mps 696 mmHg 63%
    05:00 +26°C° 0 mm 2 mps 696 mmHg 59%
    06:00 +27°C° 0 mm 2 mps 697 mmHg 55%
    07:00 +28°C° 0 mm 2 mps 697 mmHg 51%
    08:00 +29°C° 0 mm 2 mps 697 mmHg 48%
    09:00 +31°C° 0 mm 3 mps 698 mmHg 45%
    10:00 +33°C° 0 mm 3 mps 698 mmHg 42%
    11:00 +34°C° 0 mm 3 mps 698 mmHg 40%
    12:00 +35°C° 0 mm 3 mps 697 mmHg 39%
    13:00 +36°C° 0 mm 4 mps 697 mmHg 37%
    14:00 +35°C° 1.3 mm 4 mps 696 mmHg 39%
    15:00 +35°C° 1.3 mm 4 mps 696 mmHg 41%
    16:00 +35°C° 1.3 mm 4 mps 696 mmHg 43%
    17:00 +34°C° 2.1 mm 4 mps 696 mmHg 48%
    18:00 +31°C° 2.1 mm 3 mps 696 mmHg 53%
    19:00 +30°C° 2.1 mm 3 mps 697 mmHg 58%
    20:00 +29°C° 1.3 mm 3 mps 697 mmHg 60%
    21:00 +29°C° 1.3 mm 3 mps 697 mmHg 62%
    22:00 +28°C° 1.3 mm 2 mps 698 mmHg 63%
    23:00 +28°C° 1.5 mm 2 mps 698 mmHg 65%

    28 February, Tuesday

    Time Temperature Precipitation Wind Pressure Humidity
    00:00 +27°C° 1.5 mm 2 mps 697 mmHg 67%
    01:00 +27°C° 1.5 mm 2 mps 697 mmHg 69%
    02:00 +26°C° 0.5 mm 2 mps 697 mmHg 68%
    03:00 +26°C° 0.5 mm 2 mps 697 mmHg 67%
    04:00 +26°C° 0.5 mm 1 mps 696 mmHg 66%
    05:00 +27°C° 0 mm 1 mps 697 mmHg 63%
    06:00 +27°C° 0 mm 1 mps 697 mmHg 59%
    07:00 +28°C° 0 mm 1 mps 697 mmHg 55%
    08:00 +29°C° 0 mm 1 mps 697 mmHg 51%
    09:00 +30°C° 0 mm 2 mps 697 mmHg 47%
    10:00 +32°C° 0 mm 2 mps 697 mmHg 43%
    11:00 +34°C° 0 mm 2 mps 696 mmHg 41%
    12:00 +35°C° 0 mm 3 mps 696 mmHg 38%
    13:00 +36°C° 0 mm 3 mps 695 mmHg 35%
    14:00 +36°C° 0.1 mm 3 mps 695 mmHg 36%
    15:00 +36°C° 0.1 mm 3 mps 694 mmHg 36%
    16:00 +36°C° 0.1 mm 3 mps 694 mmHg 36%
    17:00 +35°C° 0.2 mm 2 mps 694 mmHg 41%
    18:00 +32°C° 0.2 mm 2 mps 694 mmHg 47%
    19:00 +31°C° 0.2 mm 1 mps 694 mmHg 52%
    20:00 +30°C° 0.1 mm 1 mps 695 mmHg 53%
    21:00 +30°C° 0.1 mm 1 mps 695 mmHg 54%
    22:00 +29°C° 0.1 mm 1 mps 695 mmHg 54%
    23:00 +29°C° 0 mm 1 mps 695 mmHg 55%

    1 March, Wednesday

    Time Temperature Precipitation Wind Pressure Humidity
    00:00 +28°C° 0 mm 1 mps 694 mmHg 56%
    01:00 +28°C° 0 mm 1 mps 694 mmHg 57%
    02:00 +27°C° 0 mm 1 mps 694 mmHg 57%
    03:00 +27°C° 0 mm 1 mps 694 mmHg 56%
    04:00 +27°C° 0 mm 1 mps 693 mmHg 56%
    05:00 +27°C° 0 mm 2 mps 694 mmHg 53%
    06:00 +28°C° 0 mm 2 mps 694 mmHg 51%
    07:00 +29°C° 0 mm 3 mps 695 mmHg 49%
    08:00 +30°C° 0 mm 3 mps 695 mmHg 46%
    09:00 +31°C° 0 mm 3 mps 695 mmHg 44%
    10:00 +33°C° 0 mm 3 mps 695 mmHg 41%
    11:00 +34°C° 0 mm 3 mps 694 mmHg 39%
    12:00 +35°C° 0 mm 3 mps 693 mmHg 37%
    13:00 +36°C° 0 mm 3 mps 693 mmHg 35%
    14:00 +36°C° 0 mm 3 mps 692 mmHg 35%
    15:00 +36°C° 0 mm 2 mps 692 mmHg 34%
    16:00 +37°C° 0 mm 2 mps 692 mmHg 33%
    17:00 +35°C° 0 mm 2 mps 692 mmHg 38%
    18:00 +34°C° 0 mm 2 mps 692 mmHg 42%
    19:00 +31°C° 0 mm 1 mps 692 mmHg 47%
    20:00 +31°C° 0.1 mm 2 mps 693 mmHg 48%
    21:00 +30°C° 0 mm 2 mps 693 mmHg 49%
    22:00 +30°C° 0 mm 2 mps 693 mmHg 49%
    23:00 +29°C° 0 mm 2 mps 693 mmHg 50%

    2 March, Thursday

    Time Temperature Precipitation Wind Pressure Humidity
    00:00 +29°C° 0 mm 3 mps 692 mmHg 51%
    01:00 +28°C° 0 mm 3 mps 692 mmHg 52%
    02:00 +27°C° 0 mm 4 mps 692 mmHg 55%
    03:00 +26°C° 0 mm 5 mps 692 mmHg 58%
    04:00 +24°C° 0 mm 6 mps 692 mmHg 61%
    05:00 +24°C° 0 mm 6 mps 693 mmHg 61%
    06:00 +24°C° 0 mm 6 mps 693 mmHg 61%
    07:00 +24°C° 0 mm 6 mps 694 mmHg 60%
    08:00 +26°C° 0 mm 6 mps 694 mmHg 56%
    09:00 +27°C° 0 mm 6 mps 694 mmHg 52%
    10:00 +28°C° 0 mm 6 mps 694 mmHg 48%
    11:00 +29°C° 0 mm 6 mps 694 mmHg 46%
    12:00 +30°C° 0 mm 6 mps 694 mmHg 44%
    13:00 +30°C° 0 mm 6 mps 693 mmHg 42%
    14:00 +30°C° 0 mm 6 mps 693 mmHg 42%
    15:00 +30°C° 0 mm 6 mps 693 mmHg 43%
    16:00 +30°C° 0 mm 6 mps 693 mmHg 43%
    17:00 +28°C° 0 mm 5 mps 694 mmHg 46%
    18:00 +27°C° 0 mm 5 mps 695 mmHg 48%
    19:00 +25°C° 0 mm 5 mps 695 mmHg 51%
    20:00 +23°C° 0 mm 5 mps 696 mmHg 53%
    21:00 +22°C° 0 mm 5 mps 696 mmHg 55%
    22:00 +22°C° 0 mm 5 mps 697 mmHg 58%
    23:00 +21°C° 0 mm 4 mps 697 mmHg 59%
    Show more